| time (UTC) | temp F | wind direction | speed MPH | gust MPH | rain 1hr in | rain 24hr in | rain mn in | humidity % | barometer mb |
| 20260905172803 | 85 | 227 | 0.0 | 3.0 | 0.00 | 0.10 | 0.04 | 75 | 1013.5 |
| 20260905172301 | 84 | 175 | 0.0 | 2.0 | 0.00 | 0.10 | 0.04 | 76 | 1013.5 |
| 20260905171816 | 83 | 181 | 0.0 | 2.0 | 0.00 | 0.11 | 0.04 | 77 | 1013.5 |
| 20260905171313 | 82 | 181 | 0.0 | 3.0 | 0.00 | 0.11 | 0.04 | 77 | 1013.8 |
| 20260905170830 | 82 | 214 | 0.0 | 0.0 | 0.00 | 0.11 | 0.04 | 78 | 1013.8 |
| 20260905170326 | 82 | 214 | 0.0 | 1.0 | 0.00 | 0.11 | 0.04 | 78 | 1013.9 |
| 20260905165801 | 81 | 214 | 0.0 | 1.0 | 0.00 | 0.11 | 0.04 | 79 | 1014.0 |
| 20260905165258 | 81 | 214 | 0.0 | 5.0 | 0.00 | 0.11 | 0.04 | 80 | 1013.9 |
| 20260905164815 | 81 | 191 | 1.0 | 5.0 | 0.00 | 0.11 | 0.04 | 78 | 1014.0 |
| 20260905164331 | 81 | 203 | 1.0 | 5.0 | 0.00 | 0.11 | 0.04 | 78 | 1014.1 |
| 20260905163806 | 81 | 245 | 1.0 | 8.0 | 0.01 | 0.11 | 0.04 | 78 | 1014.0 |
| 20260905163303 | 82 | 219 | 2.0 | 8.0 | 0.01 | 0.11 | 0.04 | 77 | 1014.1 |
| 20260905162757 | 82 | 118 | 1.0 | 7.0 | 0.01 | 0.11 | 0.04 | 76 | 1014.1 |
| 20260905161258 | 84 | 213 | 0.0 | 11.0 | 0.01 | 0.11 | 0.04 | 72 | 1014.3 |
| 20260905160811 | 85 | 67 | 2.0 | 11.0 | 0.01 | 0.11 | 0.04 | 71 | 1014.4 |
| 20260905160327 | 87 | 256 | 1.0 | 8.0 | 0.01 | 0.11 | 0.04 | 70 | 1014.2 |
| 20260905155802 | 87 | 341 | 0.0 | 3.0 | 0.01 | 0.11 | 0.04 | 70 | 1014.2 |
| 20260905155317 | 87 | 74 | 1.0 | 3.0 | 0.01 | 0.11 | 0.04 | 71 | 1014.2 |
| 20260905154832 | 88 | 88 | 1.0 | 3.0 | 0.01 | 0.11 | 0.04 | 71 | 1014.0 |
| 20260905154328 | 88 | 24 | 0.0 | 7.0 | 0.01 | 0.11 | 0.04 | 71 | 1013.9 |
| 20260905153804 | 88 | 101 | 1.0 | 7.0 | 0.00 | 0.10 | 0.03 | 71 | 1013.8 |
| 20260905153300 | 88 | 277 | 1.0 | 6.0 | 0.00 | 0.10 | 0.03 | 72 | 1013.8 |
| 20260905152817 | 87 | 92 | 1.0 | 4.0 | 0.00 | 0.10 | 0.03 | 72 | 1013.8 |
| 20260905152314 | 88 | 55 | 1.0 | 4.0 | 0.00 | 0.10 | 0.03 | 72 | 1013.7 |
| 20260905151811 | 87 | 61 | 1.0 | 4.0 | 0.00 | 0.11 | 0.03 | 72 | 1013.9 |
| 20260905151307 | 87 | 11 | 0.0 | 2.0 | 0.00 | 0.11 | 0.03 | 72 | 1013.7 |
| 20260905150307 | 87 | 14 | 0.0 | 4.0 | 0.00 | 0.11 | 0.03 | 72 | 1013.7 |
| 20260905145824 | 87 | 326 | 0.0 | 3.0 | 0.00 | 0.11 | 0.03 | 73 | 1013.7 |
| 20260905145317 | 87 | 16 | 1.0 | 3.0 | 0.00 | 0.11 | 0.03 | 73 | 1013.5 |
| 20260905144814 | 87 | 278 | 0.0 | 2.0 | 0.00 | 0.11 | 0.03 | 72 | 1013.7 |
| 20260905144310 | 86 | 308 | 0.0 | 2.0 | 0.00 | 0.11 | 0.03 | 74 | 1013.6 |
| 20260905143828 | 86 | 319 | 0.0 | 3.0 | 0.00 | 0.11 | 0.03 | 75 | 1013.6 |
| 20260905143302 | 85 | 296 | 0.0 | 3.0 | 0.00 | 0.11 | 0.03 | 75 | 1013.6 |
| 20260905142817 | 84 | 301 | 1.0 | 4.0 | 0.00 | 0.11 | 0.03 | 76 | 1013.5 |
| 20260905142330 | 83 | 296 | 2.0 | 4.0 | 0.01 | 0.11 | 0.03 | 78 | 1013.7 |
| 20260905141806 | 83 | 340 | 0.0 | 0.0 | 0.01 | 0.11 | 0.03 | 80 | 1013.7 |
| 20260905141303 | 82 | 71 | 0.0 | 0.0 | 0.01 | 0.11 | 0.03 | 81 | 1013.7 |
| 20260905140820 | 81 | 355 | 0.0 | 0.0 | 0.01 | 0.11 | 0.03 | 81 | 1013.6 |
| 20260905140335 | 81 | 63 | 0.0 | 0.0 | 0.01 | 0.11 | 0.03 | 82 | 1013.7 |
| 20260905135808 | 81 | 63 | 0.0 | 0.0 | 0.01 | 0.11 | 0.03 | 83 | 1013.4 |
| 20260905135306 | 81 | 63 | 0.0 | 0.0 | 0.01 | 0.11 | 0.03 | 83 | 1013.5 |
| 20260905134758 | 81 | 63 | 0.0 | 0.0 | 0.01 | 0.11 | 0.03 | 83 | 1013.6 |
| 20260905134309 | 81 | 63 | 0.0 | 0.0 | 0.01 | 0.11 | 0.03 | 83 | 1013.5 |
| 20260905133806 | 81 | 63 | 0.0 | 0.0 | 0.01 | 0.11 | 0.03 | 83 | 1013.6 |
| 20260905133322 | 81 | 63 | 0.0 | 0.0 | 0.01 | 0.11 | 0.03 | 83 | 1013.6 |
| 20260905132838 | 80 | 63 | 0.0 | 0.0 | 0.01 | 0.11 | 0.03 | 83 | 1013.7 |
| 20260905132311 | 80 | 63 | 0.0 | 1.0 | 0.00 | 0.10 | 0.02 | 83 | 1013.6 |
| 20260905131807 | 80 | 63 | 0.0 | 1.0 | 0.00 | 0.10 | 0.02 | 82 | 1013.6 |
| 20260905131305 | 80 | 63 | 0.0 | 1.0 | 0.00 | 0.10 | 0.02 | 83 | 1013.7 |
| 20260905130821 | 80 | 63 | 0.0 | 1.0 | 0.00 | 0.10 | 0.02 | 82 | 1013.6 |
| 20260905130338 | 80 | 63 | 0.0 | 1.0 | 0.00 | 0.10 | 0.02 | 82 | 1013.6 |
| 20260905125813 | 80 | 264 | 0.0 | 0.0 | 0.00 | 0.10 | 0.02 | 83 | 1013.7 |
| 20260905125310 | 80 | 264 | 0.0 | 0.0 | 0.00 | 0.10 | 0.02 | 83 | 1013.6 |
| 20260905124806 | 80 | 264 | 0.0 | 0.0 | 0.00 | 0.10 | 0.02 | 84 | 1013.4 |
| 20260905124300 | 79 | 264 | 0.0 | 0.0 | 0.00 | 0.10 | 0.02 | 84 | 1013.5 |
| 20260905123817 | 79 | 264 | 0.0 | 0.0 | 0.00 | 0.10 | 0.02 | 84 | 1013.4 |
| 20260905123313 | 79 | 264 | 0.0 | 0.0 | 0.00 | 0.10 | 0.02 | 84 | 1013.4 |
| 20260905122810 | 79 | 264 | 0.0 | 0.0 | 0.00 | 0.10 | 0.02 | 84 | 1013.4 |
| 20260905122327 | 79 | 264 | 0.0 | 0.0 | 0.00 | 0.10 | 0.02 | 85 | 1013.4 |
| 20260905121802 | 79 | 264 | 0.0 | 0.0 | 0.00 | 0.11 | 0.02 | 85 | 1013.5 |
| 20260905121300 | 78 | 264 | 0.0 | 0.0 | 0.00 | 0.11 | 0.02 | 84 | 1013.4 |
| 20260905120815 | 78 | 264 | 0.0 | 0.0 | 0.00 | 0.11 | 0.02 | 84 | 1013.4 |
| 20260905120310 | 78 | 264 | 0.0 | 0.0 | 0.00 | 0.11 | 0.02 | 84 | 1013.4 |
| 20260905115806 | 78 | 264 | 0.0 | 0.0 | 0.00 | 0.11 | 0.02 | 84 | 1013.4 |
| 20260905115300 | 78 | 264 | 0.0 | 0.0 | 0.00 | 0.11 | 0.02 | 84 | 1013.3 |
| 20260905114815 | 78 | 264 | 0.0 | 0.0 | 0.00 | 0.11 | 0.02 | 84 | 1013.2 |
| 20260905114310 | 78 | 264 | 0.0 | 0.0 | 0.00 | 0.11 | 0.02 | 84 | 1013.2 |
| 20260905113825 | 78 | 264 | 0.0 | 0.0 | 0.01 | 0.11 | 0.02 | 84 | 1013.2 |
| 20260905113259 | 78 | 264 | 0.0 | 0.0 | 0.01 | 0.11 | 0.02 | 83 | 1013.1 |
| 20260905112817 | 78 | 264 | 0.0 | 0.0 | 0.01 | 0.11 | 0.02 | 83 | 1012.9 |
| 20260905112332 | 78 | 264 | 0.0 | 0.0 | 0.01 | 0.11 | 0.02 | 83 | 1012.7 |
| 20260905111809 | 78 | 264 | 0.0 | 0.0 | 0.01 | 0.11 | 0.02 | 83 | 1012.7 |
| 20260905111304 | 79 | 264 | 0.0 | 0.0 | 0.01 | 0.11 | 0.02 | 83 | 1012.5 |
| 20260905110801 | 79 | 264 | 0.0 | 0.0 | 0.01 | 0.11 | 0.02 | 83 | 1012.5 |
| 20260905110317 | 79 | 264 | 0.0 | 0.0 | 0.01 | 0.11 | 0.02 | 82 | 1012.4 |
| 20260905105328 | 79 | 264 | 0.0 | 0.0 | 0.01 | 0.11 | 0.02 | 82 | 1012.5 |
| 20260905104824 | 79 | 264 | 0.0 | 0.0 | 0.01 | 0.11 | 0.02 | 82 | 1012.4 |
| 20260905104258 | 79 | 264 | 0.0 | 0.0 | 0.01 | 0.11 | 0.02 | 82 | 1012.3 |
| 20260905103842 | 79 | 264 | 0.0 | 0.0 | 0.00 | 0.10 | 0.01 | 82 | 1012.4 |
| 20260905103339 | 79 | 264 | 0.0 | 0.0 | 0.00 | 0.10 | 0.01 | 82 | 1012.3 |
| 20260905102814 | 79 | 264 | 0.0 | 0.0 | 0.00 | 0.10 | 0.01 | 82 | 1012.3 |
| 20260905102329 | 79 | 264 | 0.0 | 0.0 | 0.00 | 0.10 | 0.01 | 82 | 1012.4 |
| 20260905101300 | 79 | 264 | 0.0 | 0.0 | 0.00 | 0.10 | 0.01 | 82 | 1012.4 |
| 20260905100758 | 79 | 264 | 0.0 | 0.0 | 0.00 | 0.10 | 0.01 | 82 | 1012.4 |
| 20260905100314 | 79 | 264 | 0.0 | 0.0 | 0.00 | 0.10 | 0.01 | 81 | 1012.5 |
| 20260905095831 | 79 | 264 | 0.0 | 0.0 | 0.00 | 0.10 | 0.01 | 81 | 1012.6 |
| 20260905095306 | 79 | 264 | 0.0 | 1.0 | 0.00 | 0.10 | 0.01 | 81 | 1012.7 |
| 20260905094823 | 79 | 264 | 0.0 | 1.0 | 0.00 | 0.10 | 0.01 | 81 | 1012.7 |
| 20260905094319 | 79 | 264 | 0.0 | 0.0 | 0.00 | 0.10 | 0.01 | 82 | 1012.7 |
| 20260905093834 | 79 | 264 | 0.0 | 0.0 | 0.00 | 0.10 | 0.01 | 82 | 1012.6 |
| 20260905093310 | 79 | 264 | 0.0 | 0.0 | 0.00 | 0.10 | 0.01 | 82 | 1012.6 |
| 20260905092823 | 79 | 264 | 0.0 | 0.0 | 0.00 | 0.10 | 0.01 | 81 | 1012.7 |
| 20260905092300 | 79 | 264 | 0.0 | 0.0 | 0.00 | 0.10 | 0.01 | 81 | 1012.6 |
| 20260905091810 | 79 | 264 | 0.0 | 0.0 | 0.00 | 0.10 | 0.01 | 81 | 1012.6 |
| 20260905091305 | 79 | 264 | 0.0 | 0.0 | 0.00 | 0.10 | 0.01 | 81 | 1012.6 |
| 20260905090759 | 79 | 264 | 0.0 | 0.0 | 0.00 | 0.10 | 0.01 | 81 | 1012.6 |
| 20260905090316 | 79 | 264 | 0.0 | 0.0 | 0.00 | 0.10 | 0.01 | 81 | 1012.7 |
| 20260905085812 | 80 | 264 | 0.0 | 0.0 | 0.00 | 0.10 | 0.01 | 81 | 1012.5 |
| 20260905085309 | 80 | 264 | 0.0 | 0.0 | 0.01 | 0.10 | 0.01 | 80 | 1012.3 |
| 20260905084825 | 80 | 264 | 0.0 | 1.0 | 0.01 | 0.10 | 0.01 | 80 | 1012.4 |
| 20260905084300 | 80 | 264 | 0.0 | 1.0 | 0.01 | 0.10 | 0.01 | 80 | 1012.5 |
| 20260905083818 | 79 | 264 | 0.0 | 0.0 | 0.01 | 0.10 | 0.01 | 80 | 1012.6 |
| 20260905083335 | 79 | 264 | 0.0 | 1.0 | 0.01 | 0.10 | 0.01 | 80 | 1012.6 |
| 20260905082809 | 79 | 264 | 0.0 | 1.0 | 0.01 | 0.10 | 0.01 | 80 | 1012.6 |
| 20260905082307 | 79 | 264 | 0.0 | 0.0 | 0.01 | 0.10 | 0.01 | 81 | 1012.5 |
| 20260905081801 | 79 | 264 | 0.0 | 0.0 | 0.01 | 0.10 | 0.01 | 81 | 1012.3 |
| 20260905081318 | 80 | 264 | 0.0 | 0.0 | 0.01 | 0.10 | 0.01 | 81 | 1012.2 |
| 20260905080832 | 80 | 264 | 0.0 | 1.0 | 0.01 | 0.10 | 0.01 | 81 | 1012.2 |
| 20260905080307 | 80 | 264 | 0.0 | 0.0 | 0.01 | 0.10 | 0.01 | 81 | 1012.2 |
| 20260905075824 | 80 | 264 | 0.0 | 0.0 | 0.01 | 0.10 | 0.01 | 81 | 1012.1 |
| 20260905075341 | 80 | 264 | 0.0 | 1.0 | 0.00 | 0.09 | 0.00 | 81 | 1012.2 |
| 20260905074837 | 80 | 264 | 0.0 | 1.0 | 0.00 | 0.09 | 0.00 | 81 | 1012.2 |
| 20260905074312 | 80 | 257 | 0.0 | 3.0 | 0.00 | 0.09 | 0.00 | 81 | 1012.2 |
| 20260905073826 | 80 | 257 | 0.0 | 3.0 | 0.00 | 0.09 | 0.00 | 81 | 1012.4 |
| 20260905073321 | 80 | 257 | 0.0 | 0.0 | 0.00 | 0.09 | 0.00 | 81 | 1012.4 |
| 20260905072831 | 80 | 257 | 0.0 | 0.0 | 0.00 | 0.09 | 0.00 | 81 | 1012.4 |
| 20260905072306 | 80 | 257 | 0.0 | 0.0 | 0.00 | 0.09 | 0.00 | 81 | 1012.4 |
| 20260905071801 | 80 | 257 | 0.0 | 1.0 | 0.00 | 0.09 | 0.09 | 81 | 1012.4 |
| 20260905071318 | 80 | 257 | 0.0 | 1.0 | 0.00 | 0.09 | 0.09 | 81 | 1012.4 |
| 20260905070808 | 80 | 257 | 0.0 | 0.0 | 0.00 | 0.09 | 0.09 | 81 | 1012.3 |
| 20260905065839 | 80 | 257 | 0.0 | 0.0 | 0.00 | 0.09 | 0.09 | 82 | 1012.2 |
| 20260905065315 | 80 | 257 | 0.0 | 1.0 | 0.00 | 0.09 | 0.09 | 82 | 1012.3 |
| 20260905064812 | 80 | 257 | 0.0 | 1.0 | 0.00 | 0.09 | 0.09 | 82 | 1012.2 |
| 20260905064307 | 80 | 203 | 0.0 | 0.0 | 0.00 | 0.09 | 0.09 | 82 | 1012.3 |
| 20260905063804 | 80 | 203 | 0.0 | 0.0 | 0.00 | 0.09 | 0.09 | 82 | 1012.2 |
| 20260905063302 | 80 | 203 | 0.0 | 0.0 | 0.00 | 0.09 | 0.09 | 82 | 1012.2 |
| 20260905062759 | 80 | 203 | 0.0 | 0.0 | 0.00 | 0.09 | 0.09 | 81 | 1012.1 |
| 20260905062316 | 80 | 203 | 0.0 | 0.0 | 0.00 | 0.09 | 0.09 | 81 | 1012.2 |
| 20260905061814 | 80 | 203 | 0.0 | 0.0 | 0.00 | 0.09 | 0.09 | 81 | 1012.4 |
| 20260905061309 | 80 | 203 | 0.0 | 1.0 | 0.00 | 0.09 | 0.09 | 81 | 1012.3 |
| 20260905060852 | 80 | 203 | 0.0 | 1.0 | 0.01 | 0.09 | 0.09 | 81 | 1012.4 |
| 20260905060327 | 80 | 203 | 0.0 | 0.0 | 0.01 | 0.09 | 0.09 | 81 | 1012.4 |
| 20260905055803 | 81 | 203 | 0.0 | 0.0 | 0.01 | 0.09 | 0.09 | 81 | 1012.4 |
| 20260905055300 | 81 | 203 | 0.0 | 2.0 | 0.01 | 0.09 | 0.09 | 81 | 1012.5 |
| 20260905054816 | 81 | 203 | 0.0 | 2.0 | 0.01 | 0.09 | 0.09 | 81 | 1012.5 |
| 20260905054314 | 81 | 196 | 0.0 | 0.0 | 0.01 | 0.09 | 0.09 | 81 | 1012.5 |
| 20260905053314 | 81 | 196 | 0.0 | 3.0 | 0.01 | 0.09 | 0.09 | 80 | 1012.5 |
| 20260905052810 | 81 | 189 | 0.0 | 1.0 | 0.01 | 0.09 | 0.09 | 80 | 1012.5 |
| 20260905052306 | 81 | 189 | 0.0 | 1.0 | 0.01 | 0.09 | 0.09 | 80 | 1012.6 |
| 20260905051801 | 81 | 189 | 0.0 | 1.0 | 0.01 | 0.10 | 0.09 | 79 | 1012.7 |
| 20260905051317 | 81 | 189 | 0.0 | 0.0 | 0.01 | 0.10 | 0.09 | 79 | 1012.7 |
| 20260905050814 | 81 | 189 | 0.0 | 0.0 | 0.00 | 0.09 | 0.08 | 79 | 1012.7 |
| 20260905050330 | 81 | 189 | 0.0 | 0.0 | 0.00 | 0.09 | 0.08 | 79 | 1012.7 |
| 20260905045822 | 81 | 189 | 0.0 | 0.0 | 0.00 | 0.09 | 0.08 | 79 | 1012.7 |
| 20260905045317 | 81 | 189 | 0.0 | 0.0 | 0.00 | 0.09 | 0.08 | 79 | 1012.6 |
| 20260905044814 | 81 | 189 | 0.0 | 0.0 | 0.00 | 0.09 | 0.08 | 78 | 1012.6 |
| 20260905044330 | 81 | 189 | 0.0 | 0.0 | 0.00 | 0.09 | 0.08 | 78 | 1012.7 |
| 20260905043806 | 81 | 189 | 0.0 | 0.0 | 0.00 | 0.09 | 0.08 | 78 | 1012.6 |
| 20260905043303 | 81 | 189 | 0.0 | 2.0 | 0.00 | 0.09 | 0.08 | 78 | 1012.7 |
| 20260905042800 | 81 | 189 | 0.0 | 2.0 | 0.00 | 0.09 | 0.08 | 78 | 1012.7 |
| 20260905042317 | 81 | 189 | 0.0 | 1.0 | 0.00 | 0.09 | 0.08 | 78 | 1012.7 |
| 20260905041814 | 81 | 189 | 0.0 | 0.0 | 0.00 | 0.09 | 0.08 | 77 | 1012.8 |
| 20260905041328 | 81 | 189 | 0.0 | 0.0 | 0.00 | 0.09 | 0.08 | 77 | 1012.8 |
| 20260905040824 | 81 | 189 | 0.0 | 0.0 | 0.00 | 0.09 | 0.08 | 77 | 1012.9 |
| 20260905040318 | 81 | 189 | 0.0 | 1.0 | 0.00 | 0.09 | 0.08 | 77 | 1013.0 |
| 20260905035813 | 81 | 189 | 0.0 | 2.0 | 0.00 | 0.09 | 0.08 | 77 | 1013.1 |
| 20260905035309 | 81 | 189 | 0.0 | 3.0 | 0.00 | 0.09 | 0.08 | 77 | 1013.1 |
| 20260905034806 | 81 | 160 | 0.0 | 3.0 | 0.00 | 0.09 | 0.08 | 77 | 1013.2 |
| 20260905034303 | 81 | 63 | 0.0 | 0.0 | 0.00 | 0.09 | 0.08 | 77 | 1013.1 |
| 20260905033837 | 81 | 63 | 0.0 | 0.0 | 0.01 | 0.09 | 0.08 | 76 | 1013.2 |
| 20260905033333 | 81 | 63 | 0.0 | 0.0 | 0.01 | 0.09 | 0.08 | 76 | 1013.2 |
| 20260905032808 | 82 | 63 | 0.0 | 0.0 | 0.01 | 0.09 | 0.08 | 76 | 1013.2 |
| 20260905032325 | 82 | 63 | 0.0 | 0.0 | 0.01 | 0.09 | 0.08 | 76 | 1013.2 |
| 20260905031842 | 82 | 63 | 0.0 | 0.0 | 0.01 | 0.09 | 0.08 | 75 | 1013.3 |
| 20260905031338 | 82 | 63 | 0.0 | 0.0 | 0.01 | 0.09 | 0.08 | 75 | 1013.3 |
| 20260905030813 | 82 | 63 | 0.0 | 0.0 | 0.01 | 0.09 | 0.08 | 75 | 1013.4 |
| 20260905030310 | 82 | 63 | 0.0 | 0.0 | 0.01 | 0.09 | 0.08 | 74 | 1013.4 |
| 20260905025807 | 82 | 63 | 0.0 | 0.0 | 0.01 | 0.09 | 0.08 | 74 | 1013.5 |
| 20260905025322 | 82 | 63 | 0.0 | 0.0 | 0.01 | 0.09 | 0.08 | 74 | 1013.5 |
| 20260905024838 | 82 | 63 | 0.0 | 0.0 | 0.01 | 0.09 | 0.08 | 74 | 1013.5 |
| 20260905024306 | 82 | 63 | 0.0 | 0.0 | 0.01 | 0.09 | 0.08 | 74 | 1013.6 |
| 20260905023803 | 82 | 63 | 0.0 | 0.0 | 0.00 | 0.08 | 0.07 | 74 | 1013.5 |
| 20260905023258 | 82 | 63 | 0.0 | 0.0 | 0.00 | 0.08 | 0.07 | 74 | 1013.5 |
| 20260905022816 | 83 | 63 | 0.0 | 0.0 | 0.00 | 0.08 | 0.07 | 74 | 1013.5 |
| 20260905022313 | 83 | 63 | 0.0 | 0.0 | 0.00 | 0.08 | 0.07 | 74 | 1013.4 |
| 20260905021830 | 83 | 63 | 0.0 | 2.0 | 0.00 | 0.08 | 0.07 | 74 | 1013.4 |
| 20260905021324 | 83 | 63 | 0.0 | 2.0 | 0.00 | 0.08 | 0.07 | 74 | 1013.3 |
| 20260905020821 | 83 | 63 | 0.0 | 2.0 | 0.00 | 0.08 | 0.07 | 74 | 1013.2 |
| 20260905020317 | 83 | 63 | 1.0 | 2.0 | 0.00 | 0.08 | 0.07 | 74 | 1013.2 |
| 20260905015814 | 83 | 57 | 0.0 | 2.0 | 0.00 | 0.08 | 0.07 | 75 | 1013.3 |
| 20260905015311 | 83 | 38 | 0.0 | 0.0 | 0.00 | 0.08 | 0.07 | 75 | 1013.2 |
| 20260905014808 | 83 | 38 | 0.0 | 1.0 | 0.00 | 0.08 | 0.07 | 75 | 1013.1 |
| 20260905014305 | 83 | 38 | 0.0 | 1.0 | 0.00 | 0.08 | 0.07 | 75 | 1013.1 |
| 20260905013821 | 83 | 38 | 0.0 | 1.0 | 0.00 | 0.08 | 0.07 | 75 | 1013.1 |
| 20260905013339 | 83 | 38 | 0.0 | 1.0 | 0.00 | 0.08 | 0.07 | 76 | 1013.0 |
| 20260905012813 | 83 | 38 | 0.0 | 1.0 | 0.00 | 0.08 | 0.07 | 76 | 1013.0 |
| 20260905012308 | 83 | 38 | 0.0 | 0.0 | 0.00 | 0.08 | 0.07 | 75 | 1013.0 |
| 20260905011804 | 84 | 38 | 0.0 | 0.0 | 0.00 | 0.08 | 0.07 | 75 | 1012.9 |
| 20260905011300 | 84 | 38 | 0.0 | 2.0 | 0.01 | 0.08 | 0.07 | 75 | 1013.1 |
| 20260905010816 | 84 | 38 | 0.0 | 2.0 | 0.01 | 0.08 | 0.07 | 75 | 1013.1 |
| 20260905010312 | 84 | 38 | 0.0 | 0.0 | 0.01 | 0.08 | 0.07 | 74 | 1013.1 |
| 20260905005810 | 84 | 38 | 0.0 | 0.0 | 0.01 | 0.08 | 0.07 | 74 | 1013.0 |
| 20260905005307 | 84 | 38 | 0.0 | 0.0 | 0.01 | 0.08 | 0.07 | 73 | 1013.0 |
| 20260905004802 | 84 | 38 | 0.0 | 1.0 | 0.01 | 0.08 | 0.07 | 73 | 1013.0 |
| 20260905004319 | 84 | 38 | 0.0 | 2.0 | 0.01 | 0.08 | 0.07 | 73 | 1013.0 |
| 20260905003814 | 84 | 38 | 0.0 | 2.0 | 0.01 | 0.08 | 0.07 | 72 | 1012.9 |
| 20260905003311 | 85 | 38 | 0.0 | 1.0 | 0.01 | 0.08 | 0.07 | 72 | 1012.8 |
| 20260905002805 | 85 | 38 | 0.0 | 1.0 | 0.01 | 0.08 | 0.07 | 72 | 1012.8 |
| 20260905002323 | 85 | 38 | 0.0 | 1.0 | 0.01 | 0.08 | 0.07 | 72 | 1012.9 |
| 20260905001800 | 85 | 38 | 0.0 | 1.0 | 0.01 | 0.08 | 0.07 | 72 | 1013.0 |
| 20260905001317 | 86 | 38 | 0.0 | 2.0 | 0.00 | 0.07 | 0.06 | 71 | 1013.0 |
| 20260905000812 | 86 | 38 | 0.0 | 2.0 | 0.00 | 0.07 | 0.06 | 71 | 1013.0 |
| 20260905000310 | 86 | 38 | 0.0 | 1.0 | 0.00 | 0.07 | 0.06 | 71 | 1013.0 |
| 20260904235908 | 86 | 38 | 0.0 | 2.0 | 0.00 | 0.07 | 0.06 | 70 | 1013.0 |
| 20260904235305 | 87 | 38 | 0.0 | 2.0 | 0.00 | 0.07 | 0.06 | 70 | 1013.0 |
| 20260904234305 | 87 | 85 | 0.0 | 4.0 | 0.00 | 0.07 | 0.06 | 69 | 1012.8 |
| 20260904233803 | 87 | 9 | 0.0 | 4.0 | 0.00 | 0.07 | 0.06 | 69 | 1012.7 |
| 20260904233300 | 88 | 355 | 0.0 | 1.0 | 0.00 | 0.07 | 0.06 | 69 | 1012.7 |
| 20260904232818 | 88 | 355 | 0.0 | 1.0 | 0.00 | 0.07 | 0.06 | 70 | 1012.6 |
| 20260904232314 | 87 | 14 | 0.0 | 1.0 | 0.00 | 0.07 | 0.06 | 70 | 1012.7 |
| 20260904231812 | 87 | 14 | 0.0 | 3.0 | 0.00 | 0.07 | 0.06 | 71 | 1012.7 |
| 20260904231328 | 87 | 14 | 1.0 | 3.0 | 0.01 | 0.07 | 0.06 | 70 | 1012.7 |
| 20260904230804 | 87 | 332 | 1.0 | 3.0 | 0.01 | 0.07 | 0.06 | 70 | 1012.8 |
| 20260904230300 | 87 | 87 | 0.0 | 3.0 | 0.01 | 0.07 | 0.06 | 70 | 1012.8 |
| 20260904225818 | 88 | 5 | 0.0 | 3.0 | 0.01 | 0.07 | 0.06 | 70 | 1012.8 |
| 20260904225313 | 88 | 350 | 1.0 | 3.0 | 0.01 | 0.07 | 0.06 | 68 | 1012.8 |
| 20260904224807 | 89 | 309 | 0.0 | 6.0 | 0.01 | 0.07 | 0.06 | 67 | 1012.7 |
| 20260904224304 | 90 | 309 | 1.0 | 6.0 | 0.01 | 0.07 | 0.06 | 67 | 1012.6 |
| 20260904223822 | 90 | 12 | 1.0 | 3.0 | 0.01 | 0.07 | 0.06 | 66 | 1012.6 |
| 20260904223339 | 91 | 5 | 0.0 | 3.0 | 0.01 | 0.07 | 0.06 | 67 | 1012.7 |
| 20260904222815 | 91 | 36 | 0.0 | 2.0 | 0.01 | 0.07 | 0.06 | 66 | 1012.6 |
| 20260904222312 | 91 | 17 | 0.0 | 2.0 | 0.01 | 0.07 | 0.06 | 66 | 1012.6 |
| 20260904221810 | 91 | 298 | 0.0 | 2.0 | 0.01 | 0.08 | 0.06 | 66 | 1012.6 |
| 20260904221307 | 91 | 47 | 0.0 | 2.0 | 0.00 | 0.07 | 0.05 | 66 | 1012.5 |
| 20260904220824 | 91 | 296 | 0.0 | 2.0 | 0.00 | 0.07 | 0.05 | 65 | 1012.5 |
| 20260904220319 | 91 | 10 | 0.0 | 2.0 | 0.00 | 0.07 | 0.05 | 66 | 1012.6 |
| 20260904215815 | 91 | 340 | 0.0 | 2.0 | 0.00 | 0.07 | 0.05 | 67 | 1012.5 |
| 20260904215310 | 91 | 303 | 0.0 | 3.0 | 0.00 | 0.07 | 0.05 | 67 | 1012.7 |
| 20260904214807 | 91 | 310 | 0.0 | 4.0 | 0.00 | 0.07 | 0.05 | 66 | 1012.7 |
| 20260904214304 | 91 | 355 | 0.0 | 4.0 | 0.00 | 0.07 | 0.05 | 65 | 1012.6 |
| 20260904213823 | 90 | 17 | 0.0 | 2.0 | 0.00 | 0.07 | 0.05 | 66 | 1012.5 |
| 20260904212807 | 90 | 21 | 0.0 | 3.0 | 0.00 | 0.07 | 0.05 | 66 | 1012.7 |
| 20260904212325 | 90 | 26 | 0.0 | 3.0 | 0.01 | 0.07 | 0.05 | 67 | 1012.8 |
| 20260904211802 | 90 | 10 | 0.0 | 6.0 | 0.01 | 0.07 | 0.05 | 65 | 1012.8 |
| 20260904211315 | 90 | 289 | 1.0 | 7.0 | 0.01 | 0.07 | 0.05 | 66 | 1012.7 |
| 20260904210812 | 90 | 39 | 1.0 | 7.0 | 0.01 | 0.07 | 0.05 | 65 | 1012.8 |
| 20260904210307 | 90 | 57 | 0.0 | 2.0 | 0.01 | 0.07 | 0.05 | 66 | 1012.7 |
| 20260904205804 | 90 | 61 | 0.0 | 2.0 | 0.01 | 0.07 | 0.05 | 65 | 1012.7 |
| 20260904205310 | 90 | 295 | 0.0 | 2.0 | 0.01 | 0.07 | 0.05 | 66 | 1012.6 |
| 20260904204807 | 90 | 329 | 1.0 | 4.0 | 0.01 | 0.07 | 0.05 | 66 | 1012.7 |
| 20260904204303 | 90 | 14 | 0.0 | 4.0 | 0.01 | 0.07 | 0.05 | 66 | 1012.7 |
| 20260904203800 | 90 | 5 | 0.0 | 3.0 | 0.01 | 0.07 | 0.05 | 67 | 1012.7 |
| 20260904203316 | 90 | 39 | 0.0 | 3.0 | 0.01 | 0.07 | 0.05 | 67 | 1012.7 |
| 20260904202812 | 90 | 50 | 1.0 | 5.0 | 0.01 | 0.07 | 0.05 | 67 | 1012.8 |
| 20260904202329 | 90 | 345 | 1.0 | 5.0 | 0.00 | 0.06 | 0.04 | 68 | 1012.9 |
| 20260904201804 | 90 | 66 | 0.0 | 5.0 | 0.00 | 0.06 | 0.04 | 67 | 1012.9 |
| 20260904201321 | 90 | 28 | 1.0 | 5.0 | 0.00 | 0.06 | 0.04 | 68 | 1012.9 |
| 20260904200839 | 90 | 19 | 1.0 | 5.0 | 0.00 | 0.06 | 0.04 | 67 | 1013.0 |
| 20260904200313 | 90 | 24 | 1.0 | 4.0 | 0.00 | 0.06 | 0.04 | 68 | 1013.1 |
| 20260904195810 | 90 | 360 | 0.0 | 5.0 | 0.00 | 0.06 | 0.04 | 67 | 1013.1 |
| 20260904194833 | 89 | 30 | 0.0 | 4.0 | 0.00 | 0.06 | 0.04 | 69 | 1013.1 |
| 20260904194309 | 89 | 351 | 1.0 | 5.0 | 0.00 | 0.06 | 0.04 | 67 | 1013.2 |
| 20260904193806 | 88 | 42 | 1.0 | 5.0 | 0.00 | 0.06 | 0.04 | 69 | 1013.3 |
| 20260904193301 | 88 | 69 | 0.0 | 6.0 | 0.00 | 0.06 | 0.04 | 71 | 1013.4 |
| 20260904192816 | 88 | 340 | 1.0 | 7.0 | 0.01 | 0.06 | 0.04 | 72 | 1013.4 |
| 20260904192400 | 87 | 22 | 0.0 | 7.0 | 0.01 | 0.06 | 0.04 | 72 | 1013.6 |
| 20260904191813 | 87 | 40 | 1.0 | 4.0 | 0.01 | 0.06 | 0.04 | 72 | 1013.7 |
| 20260904191309 | 87 | 125 | 1.0 | 5.0 | 0.01 | 0.06 | 0.04 | 72 | 1013.8 |
| 20260904190826 | 87 | 348 | 2.0 | 5.0 | 0.01 | 0.06 | 0.04 | 72 | 1013.8 |
| 20260904190301 | 87 | 87 | 1.0 | 6.0 | 0.01 | 0.06 | 0.04 | 71 | 1014.0 |
| 20260904185818 | 87 | 327 | 1.0 | 7.0 | 0.01 | 0.06 | 0.04 | 72 | 1014.1 |
| 20260904185316 | 87 | 346 | 2.0 | 7.0 | 0.01 | 0.06 | 0.04 | 73 | 1014.1 |
| 20260904184811 | 86 | 39 | 0.0 | 4.0 | 0.01 | 0.06 | 0.04 | 73 | 1014.4 |
| 20260904184307 | 86 | 5 | 0.0 | 4.0 | 0.01 | 0.06 | 0.04 | 73 | 1014.4 |
| 20260904183804 | 87 | 32 | 0.0 | 3.0 | 0.01 | 0.06 | 0.04 | 71 | 1014.5 |
| 20260904182806 | 87 | 11 | 1.0 | 4.0 | 0.00 | 0.05 | 0.03 | 72 | 1014.6 |
| 20260904182344 | 87 | 142 | 0.0 | 4.0 | 0.00 | 0.05 | 0.03 | 73 | 1014.6 |
| 20260904181833 | 87 | 43 | 0.0 | 5.0 | 0.00 | 0.05 | 0.03 | 74 | 1014.7 |
| 20260904181329 | 87 | 36 | 0.0 | 5.0 | 0.00 | 0.05 | 0.03 | 73 | 1014.7 |
| 20260904180804 | 87 | 78 | 1.0 | 6.0 | 0.00 | 0.05 | 0.03 | 72 | 1014.8 |
| 20260904175824 | 86 | 331 | 0.0 | 7.0 | 0.00 | 0.05 | 0.03 | 74 | 1014.8 |
| 20260904175318 | 86 | 360 | 1.0 | 7.0 | 0.00 | 0.05 | 0.03 | 73 | 1014.9 |
| 20260904174816 | 85 | 350 | 1.0 | 5.0 | 0.00 | 0.05 | 0.03 | 76 | 1014.9 |
| 20260904174306 | 85 | 360 | 1.0 | 4.0 | 0.00 | 0.05 | 0.03 | 74 | 1014.9 |
| 20260904173803 | 84 | 355 | 0.0 | 3.0 | 0.00 | 0.05 | 0.03 | 75 | 1015.0 |
| 20260904173317 | 84 | 111 | 0.0 | 3.0 | 0.01 | 0.05 | 0.03 | 74 | 1014.9 |